Stations météo

réclame
Mon MeteoGroup
Noervenich/Flugplatz, Allemagne (10502): Température de l'air & dewpoint: 16.11.2019 04:00:00 - 22.11.2019 04:00:00 (CET)Noervenich/Flugplatz, Allemagne (10502): Vitesse du vent: 16.11.2019 04:00:00 - 22.11.2019 04:00:00 (CET)Noervenich/Flugplatz, Allemagne (10502): Direction du vent: 16.11.2019 04:00:00 - 22.11.2019 04:00:00 (CET)Noervenich/Flugplatz, Allemagne (10502): reduced air pressure: 16.11.2019 04:00:00 - 22.11.2019 04:00:00 (CET)Noervenich/Flugplatz, Allemagne (10502): visibility: 16.11.2019 04:00:00 - 22.11.2019 04:00:00 (CET)
Date & Time tt [°C] td [°C] ff [km/h] ff [knt] dd ppp [hPa] vv [km]
22.11.2019 04:00:00 4,0 2,4 7 4 SE 1006,8 10
22.11.2019 03:00:00 3,0 1,8 11 6 ESE 1006,6 10
22.11.2019 02:00:00 2,8 1,7 11 6 E 1006,6 10
22.11.2019 01:00:00 2,9 1,8 7 4 SE 1006,7 10
22.11.2019 00:00:00 2,9 1,8 11 6 ESE 1006,9 12
21.11.2019 23:00:00 2,9 1,9 7 4 ESE 1007,4 9
21.11.2019 22:00:00 3,4 2,2 7 4 N 1007,5 10
21.11.2019 21:00:00 4,2 2,6 7 4 SE 1007,4 10
21.11.2019 20:00:00 4,7 2,9 7 4 SE 1007,4 10
21.11.2019 19:00:00 4,6 2,8 7 4 SE 1007,4 10
21.11.2019 18:00:00 4,8 2,7 14 8 SSE 1007,6 10
21.11.2019 17:00:00 4,9 2,5 11 6 ESE 1007,4 10
21.11.2019 16:00:00 5,0 2,2 7 4 SE 1007,5 10
21.11.2019 15:00:00 5,4 2,2 7 4 SE 1007,6 10
21.11.2019 14:00:00 5,8 1,9 11 6 ESE 1007,6 10
21.11.2019 13:00:00 4,1 1,2 11 6 ESE 1008,4 10
21.11.2019 12:00:00 3,3 0,9 11 6 ESE 1008,9 10
21.11.2019 11:00:00 2,0 0,4 11 6 ESE 1009,9 7
21.11.2019 10:00:00 0,6 -0,2 11 6 ESE 1010,1 4,5
21.11.2019 09:00:00 -0,3 -1,0 7 4 N 1010,6 4,0
21.11.2019 08:00:00 -0,5 -1,2 9 5 ESE 1010,9 4,5
21.11.2019 07:00:00 -0,6 -1,2 11 6 E 1011,2 7
21.11.2019 06:00:00 -0,7 -1,4 11 6 E 1011,4 9
21.11.2019 05:00:00 -1,2 -1,7 7 4 E 1011,5 5
21.11.2019 04:00:00 -1,3 -1,8 4 2 N 1012,1 6
21.11.2019 03:00:00 -1,0 -1,5 4 2 N 1012,5 6
21.11.2019 02:00:00 -0,9 -1,6 4 2 N 1012,9 8
21.11.2019 01:00:00 -0,1 -0,9 4 2 N 1013,4 9
21.11.2019 00:00:00 -0,1 -0,9 7 4 E 1013,9 9
20.11.2019 23:00:00 0,2 -0,9 7 4 E 1014,3 10
20.11.2019 22:00:00 0,5 -0,6 7 4 ESE 1014,7 20
20.11.2019 21:00:00 0,9 -0,7 4 2 SE 1015,2 20
20.11.2019 20:00:00 3,3 -0,5 7 4 N 1015,3 20
20.11.2019 19:00:00 3,7 -0,4 7 4 ESE 1015,4 20
20.11.2019 18:00:00 4,0 -0,1 11 6 E 1015,5 20
20.11.2019 17:00:00 4,3 0,6 11 6 E 1015,6 20
20.11.2019 16:00:00 4,8 -0,3 11 6 ESE 1016,1 20
20.11.2019 15:00:00 5,1 0,8 11 6 ESE 1016,6 20
20.11.2019 14:00:00 5,2 1,0 18 10 E 1016,9 15
20.11.2019 13:00:00 4,6 1,5 11 6 E 1017,5 20
20.11.2019 12:00:00 4,8 0,6 7 4 ESE 1018,1 20
20.11.2019 11:00:00 4,0 0,9 11 6 SSE 1018,5 15
20.11.2019 10:00:00 2,5 0,6 7 4 SE 1019,0 15
20.11.2019 09:00:00 1,3 -0,1 7 4 ESE 1019,4 10
20.11.2019 08:00:00 1,6 0,2 7 4 S 1019,3 10
20.11.2019 07:00:00 1,6 0,3 7 4 SSE 1019,6 10
20.11.2019 06:00:00 0,7 -0,1 7 4 SE 1019,8 10
20.11.2019 05:00:00 0,1 -0,5 7 4 ESE 1019,8 9
20.11.2019 04:00:00 0,1 -0,6 4 2 N 1020,1 9
20.11.2019 03:00:00 -0,4 -1,2 7 4 S 1020,3 9
20.11.2019 02:00:00 -0,3 -0,9 4 2 SSW 1020,2 9
20.11.2019 01:00:00 -0,2 -0,7 7 4 SSE 1020,4 9
20.11.2019 00:00:00 0,9 0,5 4 2 N 1020,4 9
19.11.2019 23:00:00 0,7 0,1 0 0 N 1020,3 9
19.11.2019 22:00:00 2,2 1,1 7 4 WSW 1020,1 9
19.11.2019 21:00:00 1,1 0,5 4 2 S 1019,9 9
19.11.2019 20:00:00 1,8 0,9 4 2 N 1019,8 10
19.11.2019 19:00:00 2,4 1,7 7 4 WSW 1019,3 15
19.11.2019 18:00:00 3,9 2,4 7 4 SW 1018,9 15
19.11.2019 17:00:00 5,5 3,0 11 6 W 1018,5 20
19.11.2019 16:00:00 5,9 3,3 7 4 W 1018,1 15
19.11.2019 15:00:00 6,5 3,6 11 6 W 1017,8 15
19.11.2019 14:00:00 6,4 4,1 7 4 WSW 1017,7 15
19.11.2019 13:00:00 5,3 4,1 7 4 SSW 1017,8 8
19.11.2019 12:00:00 4,9 3,5 11 6 W 1017,8 9
19.11.2019 11:00:00 4,7 3,1 16 9 W 1017,7 6
19.11.2019 10:00:00 5,0 3,2 18 10 W 1016,8 20
19.11.2019 09:00:00 3,9 2,1 14 8 WSW 1016,2 20
19.11.2019 08:00:00 3,4 1,7 22 12 W 1015,9 15
19.11.2019 07:00:00 3,7 1,9 14 8 WSW 1015,6 15
19.11.2019 06:00:00 3,7 2,1 14 8 SW 1015,3 15
19.11.2019 05:00:00 3,5 2,1 18 10 W 1014,6 15
19.11.2019 04:00:00 4,6 2,9 18 10 WSW 1013,7 15
19.11.2019 03:00:00 5,2 3,3 18 10 WSW 1013,6 15
19.11.2019 02:00:00 5,8 4,1 22 12 W 1012,9 12
19.11.2019 01:00:00 6,4 4,7 22 12 W 1012,5 8
19.11.2019 00:00:00 6,2 5,2 14 8 W 1011,6 6
18.11.2019 23:00:00 5,8 5,0 22 12 W 1010,8 6
18.11.2019 22:00:00 5,4 4,3 14 8 WSW 1010,1 6
18.11.2019 21:00:00 5,8 4,6 25 14 W 1009,5 6
18.11.2019 20:00:00 5,4 4,8 14 8 SW 1008,9 3,0
18.11.2019 19:00:00 5,4 4,7 14 8 WSW 1008,7 3,0
18.11.2019 18:00:00 5,4 4,7 18 10 W 1008,5 3,0
18.11.2019 17:00:00 5,2 4,5 14 8 WSW 1008,1 2,5
18.11.2019 16:00:00 5,1 4,5 11 6 WSW 1007,9 3,0
18.11.2019 15:00:00 5,0 4,4 11 6 W 1007,6 2,5
18.11.2019 14:00:00 4,8 4,3 11 6 W 1007,4 2,0
18.11.2019 13:00:00 4,7 4,2 11 6 W 1007,4 2,0
18.11.2019 12:00:00 4,4 3,9 11 6 W 1007,5 2,5
18.11.2019 11:00:00 4,2 3,7 11 6 WNW 1007,6 3,7
18.11.2019 10:00:00 4,0 3,5 11 6 WNW 1007,3 4,0
18.11.2019 09:00:00 3,8 3,2 7 4 WNW 1007,4 4,5
18.11.2019 08:00:00 3,6 3,0 14 8 WNW 1006,8 4,0
18.11.2019 07:00:00 3,4 2,9 11 6 WNW 1006,8 2,8
18.11.2019 06:00:00 3,3 2,8 14 8 WNW 1006,2 2,0
18.11.2019 05:00:00 3,3 2,6 14 8 NW 1006,3 2,5
18.11.2019 04:00:00 3,4 2,7 14 8 NNW 1006,2 4,0
18.11.2019 03:00:00 3,4 2,8 11 6 NNW 1006,4 4,0
18.11.2019 02:00:00 3,5 2,8 11 6 NNW 1006,5 4,5
18.11.2019 01:00:00 3,6 2,8 18 10 NW 1006,5 4,5
18.11.2019 00:00:00 3,9 2,9 18 10 NNW 1006,7 4,5
17.11.2019 23:00:00 3,7 2,9 14 8 NNW 1007,0 3,0
17.11.2019 22:00:00 3,4 2,8 18 10 NW 1007,5 1,5
17.11.2019 21:00:00 3,5 2,9 14 8 NW 1008,0 1,0
17.11.2019 20:00:00 3,7 2,9 18 10 NW 1007,9 2,5
17.11.2019 19:00:00 3,8 2,5 18 10 N 1008,5 5
17.11.2019 18:00:00 4,0 2,5 14 8 NW 1008,4 3,0
17.11.2019 17:00:00 4,3 2,5 11 6 NW 1008,9 5
17.11.2019 16:00:00 3,7 2,2 14 8 WNW 1009,1 3,0
17.11.2019 15:00:00 3,0 2,4 14 8 WNW 1009,7 2,0
17.11.2019 14:00:00 2,1 1,8 7 4 W 1011,0 0,6
17.11.2019 13:00:00 1,8 1,5 4 2 N 1010,9 0,6
17.11.2019 12:00:00 1,0 0,7 4 2 SSE 1011,8 0,1
17.11.2019 11:00:00 0,7 0,4 4 2 S 1012,1 0,1
17.11.2019 10:00:00 0,5 0,2 7 4 SE 1012,7 0,1
17.11.2019 09:00:00 -0,1 -0,4 7 4 E 1012,5 0,1
17.11.2019 08:00:00 -0,2 -0,5 7 4 ESE 1012,7 0,1
17.11.2019 07:00:00 -0,1 -0,5 11 6 SE 1012,7 0,3
17.11.2019 06:00:00 -1,0 -1,5 7 4 ESE 1012,4 0,3
17.11.2019 05:00:00 0,1 -0,5 11 6 ESE 1012,3 5
17.11.2019 04:00:00 -2,3 -3,1 4 2 SE 1012,6 9
17.11.2019 03:00:00 -1,0 -1,7 4 2 N 1012,9 9
17.11.2019 02:00:00 0,1 -1,0 7 4 SE 1013,2 9
17.11.2019 01:00:00 1,3 0,1 11 6 SSE 1013,1 12
17.11.2019 00:00:00 0,4 -0,5 7 4 SSE 1012,9 13
16.11.2019 23:00:00 1,4 0,0 7 4 SE 1012,2 13
16.11.2019 22:00:00 2,6 0,5 7 4 SSE 1012,5 25
16.11.2019 21:00:00 2,9 0,4 7 4 SSE 1012,3 25
16.11.2019 20:00:00 3,4 0,4 7 4 SSE 1012,0 25
16.11.2019 19:00:00 3,2 0,4 7 4 S 1011,6 30
16.11.2019 18:00:00 3,5 0,6 7 4 S 1010,5 40
16.11.2019 17:00:00 6,2 0,9 7 4 SSW 1010,0 40
16.11.2019 16:00:00 8,1 0,7 11 6 SSW 1009,4 40
16.11.2019 15:00:00 8,2 0,9 7 4 N 1008,8 40
16.11.2019 14:00:00 8,1 1,1 11 6 S 1009,2 40
16.11.2019 13:00:00 6,5 1,5 7 4 S 1009,4 20
16.11.2019 12:00:00 6,6 1,1 11 6 S 1009,0 20
16.11.2019 11:00:00 6,6 1,3 7 4 SSE 1008,9 20
16.11.2019 10:00:00 5,4 0,5 7 4 SSE 1008,7 20
16.11.2019 09:00:00 1,9 -0,5 4 2 N 1008,3 20
16.11.2019 08:00:00 1,3 -0,6 7 4 S 1007,6 20
16.11.2019 07:00:00 1,1 -0,3 11 6 S 1007,0 20
16.11.2019 06:00:00 0,6 -0,3 4 2 N 1006,1 20
16.11.2019 05:00:00 1,5 -0,1 4 2 N 1006,0 20
16.11.2019 04:00:00 2,1 0,3 4 2 N 1005,7 20

tt = Température de l'air
td = dewpoint
ff = Vitesse du vent
dd = Direction du vent
ppp = reduced air pressure
vv = visibility

stations d'obs. à proximité